sat.trackr.live / text

‹ back to catalog

STARLINK-32646

NORAD 62307 · 2024-239G

PAYLOAD ACTIVE UNKNOWN

§ Identity

Operator
Country
US
Launch date
2024-12-13
Launch site
AFWTR
Launch vehicle
Mass (kg)
RCS (m²)

Purposes: comms

External: N2YO · Heavens-Above · Gunter

§ Orbital elements

Epoch: 2026-09-21T17:36:33.785568Z

Period
93.85 min
Inclination
53.1595°
Eccentricity
0.0001098
Mean motion
15.34382580 rev/d
Perigee alt
462.0 km
Apogee alt
463.5 km
Semi-major
6,840.9 km
B*
6.5639e-4
RAAN
348.0868°
Arg perigee
96.5979°
Mean anomaly
263.5149°
Rev number
9,961

§ Raw data

STARLINK-326461 62307U 24239G   26264.73372437  .00021853  00000+0  65639-3 0  99942 62307  53.1595 348.0868 0001098  96.5979 263.5149 15.34382580 99612

JSON: /api/v1/satellites/62307 · /tle

For live sub-satellite position, see the globe view (requires WebGL).

§ Visibility from observer

Set your observer location to see the next 7 days of passes ≥ 10°. The values pass through the URL so the page stays shareable.

No JS? Fill the form by hand. The geolocation button needs JavaScript.